Time,TemperatureF,DewpointF,PressureIn,WindDirection,WindDirectionDegrees,WindSpeedMPH,WindSpeedGustMPH,Humidity,HourlyPrecipIn,Conditions,Clouds,dailyrainin,SoftwareType,DateUTC
2016-02-06 00:04:00,34.0,18.0,-100.00,South,185,4.0,8.0,53,-99.99,,,-99.99,,2016-02-06 05:04:00,
2016-02-06 00:25:00,34.0,18.0,-100.00,South,180,4.0,7.0,53,-99.99,,,-99.99,,2016-02-06 05:25:00,
2016-02-06 01:24:00,33.0,18.0,-100.00,South,185,4.0,7.0,55,-99.99,,,-99.99,,2016-02-06 06:24:00,
2016-02-06 01:37:00,33.0,18.0,-100.00,South,175,5.0,7.0,55,-99.99,,,-99.99,,2016-02-06 06:37:00,
2016-02-06 02:24:00,31.0,19.0,-100.00,WNW,290,2.0,4.0,61,-99.99,,,-99.99,,2016-02-06 07:24:00,
2016-02-06 02:44:00,31.0,20.0,-100.00,SW,215,1.0,4.0,63,-99.99,,,-99.99,,2016-02-06 07:44:00,
2016-02-06 03:24:00,31.0,20.0,-100.00,SSE,155,1.0,2.0,64,-99.99,,,-99.99,,2016-02-06 08:24:00,
2016-02-06 03:54:00,31.0,20.0,-100.00,South,175,2.0,3.0,62,-99.99,,,-99.99,,2016-02-06 08:54:00,
2016-02-06 04:04:00,31.0,19.0,-100.00,SSE,165,2.0,3.0,61,-99.99,,,-99.99,,2016-02-06 09:04:00,
2016-02-06 04:24:00,31.0,20.0,-100.00,SSW,200,2.0,4.0,64,-99.99,,,-99.99,,2016-02-06 09:24:00,
2016-02-06 05:04:00,29.0,20.0,-100.00,WSW,240,0.0,1.0,69,-99.99,,,-99.99,,2016-02-06 10:04:00,
2016-02-06 05:36:00,30.0,19.0,-100.00,SW,220,2.0,4.0,65,-99.99,,,-99.99,,2016-02-06 10:36:00,
2016-02-06 07:04:00,28.0,19.0,-100.00,WNW,285,1.0,2.0,72,-99.99,,,-99.99,,2016-02-06 12:04:00,
2016-02-06 07:24:00,27.0,20.0,-100.00,WSW,245,1.0,2.0,73,-99.99,,,-99.99,,2016-02-06 12:24:00,
2016-02-06 08:04:00,26.0,20.0,-100.00,SW,230,1.0,2.0,79,-99.99,,,-99.99,,2016-02-06 13:04:00,
2016-02-06 08:34:00,26.0,20.0,-100.00,SW,230,1.0,2.0,79,-99.99,,,-99.99,,2016-02-06 13:34:00,
2016-02-06 08:44:00,26.0,21.0,-100.00,SW,230,1.0,2.0,81,-99.99,,,-99.99,,2016-02-06 13:44:00,
2016-02-06 08:54:00,27.0,22.0,-100.00,SW,235,1.0,2.0,81,-99.99,,,-99.99,,2016-02-06 13:54:00,
2016-02-06 09:04:00,28.0,22.0,-100.00,West,260,1.0,2.0,80,-99.99,,,-99.99,,2016-02-06 14:04:00,
2016-02-06 09:44:00,29.0,23.0,-100.00,WSW,240,1.0,3.0,76,-99.99,,,-99.99,,2016-02-06 14:44:00,
2016-02-06 09:54:00,30.0,22.0,-100.00,SW,230,1.0,3.0,75,-99.99,,,-99.99,,2016-02-06 14:54:00,
2016-02-06 10:04:00,31.0,23.0,-100.00,SW,225,2.0,3.0,74,-99.99,,,-99.99,,2016-02-06 15:04:00,
2016-02-06 10:24:00,32.0,23.0,-100.00,West,270,3.0,4.0,71,-99.99,,,-99.99,,2016-02-06 15:24:00,
2016-02-06 11:04:00,33.0,23.0,-100.00,WSW,245,5.0,7.0,66,-99.99,,,-99.99,,2016-02-06 16:04:00,
2016-02-06 11:24:00,35.0,23.0,-100.00,SW,235,4.0,6.0,63,-99.99,,,-99.99,,2016-02-06 16:24:00,
2016-02-06 12:34:00,37.0,18.0,-100.00,WSW,245,5.0,8.0,46,-99.99,,,-99.99,,2016-02-06 17:34:00,
2016-02-06 13:24:00,38.0,17.0,-100.00,WSW,250,4.0,7.0,41,-99.99,,,-99.99,,2016-02-06 18:24:00,
2016-02-06 14:04:00,39.0,17.0,-100.00,SW,235,5.0,9.0,40,-99.99,,,-99.99,,2016-02-06 19:04:00,
2016-02-06 14:44:00,40.0,19.0,-100.00,SW,235,6.0,9.0,43,-99.99,,,-99.99,,2016-02-06 19:44:00,
2016-02-06 14:54:00,40.0,19.0,-100.00,South,185,4.0,10.0,42,-99.99,,,-99.99,,2016-02-06 19:54:00,
2016-02-06 15:04:00,41.0,19.0,-100.00,WSW,240,5.0,9.0,41,-99.99,,,-99.99,,2016-02-06 20:04:00,
2016-02-06 15:36:00,41.0,19.0,-100.00,SSW,210,5.0,9.0,42,-99.99,,,-99.99,,2016-02-06 20:36:00,
2016-02-06 16:45:00,42.0,17.0,-100.00,SW,225,5.0,8.0,37,-99.99,,,-99.99,,2016-02-06 21:45:00,
2016-02-06 17:04:00,42.0,17.0,-100.00,SW,230,6.0,9.0,36,-99.99,,,-99.99,,2016-02-06 22:04:00,
2016-02-06 19:05:00,37.0,17.0,-100.00,WSW,245,1.0,2.0,44,-99.99,,,-99.99,,2016-02-07 00:05:00,